Date String (YYYY-MM-DD hh:mm:ss) UTC,Instrument flags,Ambient pressure (hPa),Sample flow (lpm),Bypass flow (lpm),Sample temperature (°C),Ambient temperature (°C),ASC tube jacket temperature (°C),LED temperature (°C),Box temperature (°C),Sample RH (%),Span deviation,Mass concentration (μg/m³),Mass concentration (μg/m³),Mass concentration (μg/m³)
DateTimeUTC,F1_M11,P_M11,Q1_M11,Q2_M11,T1_M11,T2_M11,T3_M11,T4_M11,T5_M11,U1_M11,ZSPAN_M11,X2_M11,X0_M11,X1_M11
2023-05-01 15:00:00,,0828.4,5.00,0.00,26.2,24.8,00.0,34.5,27.7,13.4,0000.0,0004.64,0012.93,0003.31
2023-05-01 15:01:00,,0828.4,5.00,0.00,26.2,24.8,00.0,34.5,27.7,13.5,0000.0,0004.79,0013.00,0003.40
2023-05-01 15:02:00,,0828.4,5.00,0.00,26.2,24.8,00.0,34.5,27.7,13.5,0000.0,0004.89,0012.86,0003.50
2023-05-01 15:03:00,,0828.4,5.01,0.00,26.2,24.8,00.0,34.5,27.7,13.4,0000.0,0004.96,0011.99,0003.62
2023-05-01 15:04:00,,0828.4,5.00,0.00,26.2,24.8,00.0,34.5,27.7,13.5,0000.0,0005.06,0012.81,0003.75
2023-05-01 15:05:00,,0828.4,5.00,0.00,26.2,24.8,00.0,34.6,27.7,13.9,0000.0,0005.14,0013.02,0003.85
2023-05-01 15:06:00,,0828.4,5.01,0.00,26.3,24.8,00.0,34.6,27.7,13.5,0000.0,0005.17,0012.93,0003.93
2023-05-01 15:07:00,,0828.4,5.00,0.00,26.3,24.9,00.0,34.6,27.8,13.6,0003.9,0005.28,0013.08,0004.03
2023-05-01 15:08:00,,0828.4,5.00,0.00,26.3,24.9,00.0,34.6,27.8,13.6,0003.9,0005.32,0012.96,0004.08
2023-05-01 15:09:00,,0828.4,5.00,0.00,26.3,24.9,00.0,34.6,27.8,13.5,0003.8,0005.35,0012.75,0004.09
2023-05-01 15:10:00,,0828.5,4.99,0.00,26.3,24.9,00.0,34.6,27.9,13.5,0004.2,0005.34,0012.68,0004.09
2023-05-01 15:11:00,,0828.5,4.99,0.00,26.3,24.9,00.0,34.6,27.8,13.3,0004.6,0005.26,0012.58,0004.04
2023-05-01 15:12:00,,0828.6,4.99,0.00,26.3,24.9,00.0,34.6,27.9,13.5,0004.2,0005.16,0011.79,0003.97
2023-05-01 15:13:00,,0828.5,5.00,0.00,26.3,24.9,00.0,34.6,27.9,13.5,0000.0,0005.04,0011.40,0003.88
2023-05-01 15:14:00,,0828.5,5.01,0.00,26.3,24.9,00.0,34.6,27.8,13.5,0000.0,0004.97,0011.40,0003.77
2023-05-01 15:15:00,,0828.5,5.00,0.00,26.3,24.9,00.0,34.6,27.8,13.5,0000.0,0004.88,0010.75,0003.64
2023-05-01 15:16:00,,0828.6,5.01,0.00,26.3,24.9,00.0,34.6,27.8,13.5,0000.0,0004.84,0010.74,0003.55
2023-05-01 15:17:00,,0828.5,5.00,0.00,26.3,24.9,00.0,34.6,27.9,13.6,0000.0,0004.88,0010.87,0003.51
2023-05-01 15:18:00,,0828.4,5.00,0.00,26.3,25.0,00.0,34.6,27.8,13.4,0000.0,0004.84,0011.15,0003.43
2023-05-01 15:19:00,,0828.4,5.00,0.00,26.4,25.0,00.0,34.6,27.9,13.8,0000.0,0004.82,0011.91,0003.38
2023-05-01 15:20:00,,0828.4,4.99,0.00,26.4,25.0,00.0,34.6,27.9,13.7,0000.0,0004.84,0012.30,0003.39
2023-05-01 15:21:00,,0828.4,4.99,0.00,26.4,25.0,00.0,34.7,27.9,13.6,0000.0,0004.88,0013.21,0003.40
2023-05-01 15:22:00,,0828.4,4.99,0.00,26.4,25.0,00.0,34.7,27.9,14.0,0000.0,0004.83,0014.29,0003.40
2023-05-01 15:23:00,,0828.5,5.00,0.00,26.4,25.0,00.0,34.7,27.9,14.0,0000.0,0004.84,0014.49,0003.40
2023-05-01 15:24:00,,0828.4,5.00,0.00,26.4,25.0,00.0,34.7,27.9,13.5,0000.0,0004.84,0014.53,0003.39
2023-05-01 15:25:00,,0828.5,5.01,0.00,26.4,25.0,00.0,34.7,28.0,13.5,0000.0,0004.79,0014.75,0003.37
2023-05-01 15:26:00,,0828.4,5.01,0.00,26.4,25.1,00.0,34.7,28.0,13.5,0000.0,0004.73,0014.59,0003.36
2023-05-01 15:27:00,,0828.5,5.01,0.00,26.4,25.1,00.0,34.7,27.9,13.5,0000.0,0004.63,0014.31,0003.33
2023-05-01 15:28:00,,0828.5,5.01,0.00,26.5,25.1,00.0,34.7,28.0,13.5,0000.0,0004.56,0014.49,0003.30
2023-05-01 15:29:00,,0828.5,5.00,0.00,26.5,25.1,00.0,34.7,28.0,13.5,0000.0,0004.50,0014.85,0003.28
2023-05-01 15:30:00,,0828.6,4.99,0.00,26.5,25.1,00.0,34.7,28.0,13.6,0000.0,0004.44,0014.63,0003.25
2023-05-01 15:31:00,,0828.5,4.99,0.00,26.5,25.1,00.0,34.8,28.0,13.7,0000.0,0004.38,0014.48,0003.24
2023-05-01 15:32:00,,0828.5,4.99,0.00,26.5,25.1,00.0,34.8,28.0,13.4,0000.0,0004.35,0013.62,0003.23
2023-05-01 15:33:00,,0828.5,5.00,0.00,26.5,25.1,00.0,34.8,28.0,13.5,0000.0,0004.36,0013.71,0003.24
2023-05-01 15:34:00,,0828.6,5.00,0.00,26.5,25.1,00.0,34.8,28.0,13.5,0000.0,0004.37,0013.82,0003.24
2023-05-01 15:35:00,,0828.6,5.01,0.00,26.5,25.1,00.0,34.8,28.0,13.4,0000.0,0004.37,0014.52,0003.25
2023-05-01 15:36:00,,0828.5,5.01,0.00,26.5,25.2,00.0,34.8,28.1,13.5,0000.0,0004.42,0015.41,0003.27
2023-05-01 15:37:00,,0828.6,5.00,0.00,26.5,25.2,00.0,34.8,28.1,13.4,0000.0,0004.46,0016.29,0003.28
2023-05-01 15:38:00,,0828.6,5.00,0.00,26.6,25.2,00.0,34.8,28.1,13.5,0000.0,0004.48,0017.14,0003.29
2023-05-01 15:39:00,,0828.5,5.00,0.00,26.6,25.2,00.0,34.8,28.1,13.6,0000.0,0004.49,0017.82,0003.30
2023-05-01 15:40:00,,0828.6,4.99,0.00,26.6,25.2,00.0,34.8,28.1,13.7,0000.0,0004.51,0017.27,0003.31
2023-05-01 15:41:00,,0828.5,4.99,0.00,26.6,25.3,00.0,34.9,28.2,13.7,0000.0,0004.47,0016.44,0003.32
2023-05-01 15:42:00,,0828.5,4.99,0.00,26.6,25.3,00.0,34.9,28.2,13.6,0000.0,0004.47,0016.26,0003.34
2023-05-01 15:43:00,,0828.5,5.00,0.00,26.6,25.2,00.0,34.9,28.1,13.7,0000.0,0004.48,0016.38,0003.34
2023-05-01 15:44:00,,0828.5,5.00,0.00,26.6,25.2,00.0,34.9,28.1,13.7,0000.0,0004.52,0015.48,0003.33
2023-05-01 15:45:00,,0828.5,5.00,0.00,26.6,25.2,00.0,34.9,28.1,13.9,0000.0,0004.53,0015.05,0003.33
2023-05-01 15:46:00,,0828.5,5.00,0.00,26.6,25.2,00.0,34.9,28.1,13.7,0000.0,0004.53,0014.77,0003.36
2023-05-01 15:47:00,,0828.5,5.00,0.00,26.6,25.2,00.0,34.9,28.1,13.7,0000.0,0004.52,0014.60,0003.37
2023-05-01 15:48:00,,0828.6,5.00,0.00,26.6,25.1,00.0,34.9,28.1,13.8,0000.0,0004.54,0013.96,0003.39
2023-05-01 15:49:00,,0828.6,4.99,0.00,26.6,25.1,00.0,34.9,28.1,14.2,0000.0,0004.62,0013.42,0003.43
2023-05-01 15:50:00,,0828.6,5.00,0.00,26.6,25.1,00.0,34.9,28.1,14.0,0000.0,0004.60,0012.56,0003.45
2023-05-01 15:51:00,,0828.6,5.00,0.00,26.6,25.1,00.0,34.9,28.1,14.0,0000.0,0004.65,0012.80,0003.49
2023-05-01 15:52:00,,0828.6,5.00,0.00,26.6,25.2,00.0,34.9,28.1,13.9,0000.0,0004.78,0013.36,0003.53
2023-05-01 15:53:00,,0828.6,5.00,0.00,26.6,25.2,00.0,34.9,28.1,14.0,0000.0,0004.82,0013.36,0003.56
2023-05-01 15:54:00,,0828.6,5.00,0.00,26.6,25.2,00.0,34.9,28.1,14.0,0000.0,0004.82,0013.69,0003.57
2023-05-01 15:55:00,,0828.6,5.01,0.00,26.6,25.2,00.0,34.9,28.1,13.9,0000.0,0004.85,0014.49,0003.60
2023-05-01 15:56:00,,0828.6,5.00,0.00,26.6,25.3,00.0,34.9,28.1,13.8,0000.0,0004.88,0015.34,0003.62
2023-05-01 15:57:00,,0828.6,4.99,0.00,26.7,25.3,00.0,35.0,28.2,14.0,0000.0,0004.93,0015.22,0003.62
2023-05-01 15:58:00,,0828.6,4.99,0.00,26.7,25.3,00.0,35.0,28.2,14.1,0000.0,0004.96,0014.85,0003.65
2023-05-01 15:59:00,,0828.6,4.99,0.00,26.7,25.3,00.0,35.0,28.2,14.2,0000.0,0004.94,0014.47,0003.65
